Time,TemperatureF,DewpointF,PressureIn,WindDirection,WindDirectionDegrees,WindSpeedMPH,WindSpeedGustMPH,Humidity,HourlyPrecipIn,Conditions,Clouds,dailyrainin,SoftwareType,DateUTC
2013-03-26 00:52:00,25.0,9.0,-100.00,WNW,295,2.0,3.0,49,-99.99,,,0.00,,2013-03-26 06:52:00,
2013-03-26 01:02:00,25.0,9.0,-100.00,WNW,295,2.0,3.0,49,-99.99,,,0.00,,2013-03-26 07:02:00,
2013-03-26 01:12:00,25.0,9.0,-100.00,WNW,295,2.0,3.0,49,-99.99,,,0.00,,2013-03-26 07:12:00,
2013-03-26 01:22:00,25.0,9.0,-100.00,WNW,295,2.0,3.0,49,-99.99,,,0.00,,2013-03-26 07:22:00,
2013-03-26 01:52:00,24.0,9.0,-100.00,WSW,255,3.0,4.0,53,-99.99,,,0.00,,2013-03-26 07:52:00,
2013-03-26 02:02:00,24.0,9.0,-100.00,WSW,255,3.0,4.0,53,-99.99,,,0.00,,2013-03-26 08:02:00,
2013-03-26 02:12:00,24.0,9.0,-100.00,WSW,255,3.0,4.0,53,-99.99,,,0.00,,2013-03-26 08:12:00,
2013-03-26 02:22:00,24.0,9.0,-100.00,WSW,255,3.0,4.0,53,-99.99,,,0.00,,2013-03-26 08:22:00,
2013-03-26 02:52:00,25.0,13.0,-100.00,SW,235,1.0,1.0,60,-99.99,,,0.00,,2013-03-26 08:52:00,
2013-03-26 03:02:00,25.0,13.0,-100.00,SW,235,1.0,1.0,60,-99.99,,,0.00,,2013-03-26 09:02:00,
2013-03-26 03:12:00,25.0,13.0,-100.00,SW,235,1.0,1.0,60,-99.99,,,0.00,,2013-03-26 09:12:00,
2013-03-26 03:22:00,25.0,13.0,-100.00,SW,235,1.0,1.0,60,-99.99,,,0.00,,2013-03-26 09:22:00,
2013-03-26 03:52:00,24.0,13.0,-100.00,WNW,290,1.0,1.0,62,-99.99,,,0.00,,2013-03-26 09:52:00,
2013-03-26 04:02:00,24.0,13.0,-100.00,WNW,290,1.0,1.0,62,-99.99,,,0.00,,2013-03-26 10:02:00,
2013-03-26 04:12:00,24.0,13.0,-100.00,WNW,290,1.0,1.0,62,-99.99,,,0.00,,2013-03-26 10:12:00,
2013-03-26 04:22:00,24.0,13.0,-100.00,WNW,290,1.0,1.0,62,-99.99,,,0.00,,2013-03-26 10:22:00,
2013-03-26 04:53:00,22.0,13.0,-100.00,North,-999,0.0,0.0,66,-99.99,,,0.00,,2013-03-26 10:53:00,
2013-03-26 05:02:00,22.0,13.0,-100.00,North,-999,0.0,0.0,66,-99.99,,,0.00,,2013-03-26 11:02:00,
2013-03-26 05:12:00,22.0,13.0,-100.00,North,-999,0.0,0.0,66,-99.99,,,0.00,,2013-03-26 11:12:00,
2013-03-26 05:21:00,22.0,13.0,-100.00,North,-999,0.0,0.0,66,-99.99,,,0.00,,2013-03-26 11:21:00,
2013-03-26 05:52:00,22.0,14.0,-100.00,West,270,3.0,4.0,71,-99.99,,,0.00,,2013-03-26 11:52:00,
2013-03-26 06:02:00,22.0,14.0,-100.00,West,270,3.0,4.0,71,-99.99,,,0.00,,2013-03-26 12:02:00,
2013-03-26 06:12:00,22.0,14.0,-100.00,West,270,3.0,4.0,71,-99.99,,,0.00,,2013-03-26 12:12:00,
2013-03-26 06:21:00,22.0,14.0,-100.00,West,270,3.0,4.0,71,-99.99,,,0.00,,2013-03-26 12:21:00,
2013-03-26 06:52:00,20.0,13.0,-100.00,West,275,3.0,3.0,74,-99.99,,,0.00,,2013-03-26 12:52:00,
2013-03-26 07:02:00,20.0,13.0,-100.00,West,275,3.0,3.0,74,-99.99,,,0.00,,2013-03-26 13:02:00,
2013-03-26 07:12:00,20.0,13.0,-100.00,West,275,3.0,3.0,74,-99.99,,,0.00,,2013-03-26 13:12:00,
2013-03-26 07:22:00,20.0,13.0,-100.00,West,275,3.0,3.0,74,-99.99,,,0.00,,2013-03-26 13:22:00,
2013-03-26 07:52:00,22.0,14.0,-100.00,West,265,2.0,2.0,71,-99.99,,,0.00,,2013-03-26 13:52:00,
2013-03-26 08:02:00,22.0,14.0,-100.00,West,265,2.0,2.0,71,-99.99,,,0.00,,2013-03-26 14:02:00,
2013-03-26 08:11:00,22.0,14.0,-100.00,West,265,2.0,2.0,71,-99.99,,,0.00,,2013-03-26 14:11:00,
2013-03-26 08:22:00,22.0,14.0,-100.00,West,265,2.0,2.0,71,-99.99,,,0.00,,2013-03-26 14:22:00,
2013-03-26 08:52:00,24.0,17.0,-100.00,WSW,255,1.0,1.0,73,-99.99,,,0.00,,2013-03-26 14:52:00,
2013-03-26 09:02:00,24.0,17.0,-100.00,WSW,255,1.0,1.0,73,-99.99,,,0.00,,2013-03-26 15:02:00,
2013-03-26 09:12:00,24.0,17.0,-100.00,WSW,255,1.0,1.0,73,-99.99,,,0.00,,2013-03-26 15:12:00,
2013-03-26 09:22:00,24.0,17.0,-100.00,WSW,255,1.0,1.0,73,-99.99,,,0.00,,2013-03-26 15:22:00,
2013-03-26 09:53:00,33.0,21.0,-100.00,WSW,240,0.0,1.0,60,-99.99,,,0.00,,2013-03-26 15:53:00,
2013-03-26 10:02:00,33.0,21.0,-100.00,WSW,240,0.0,1.0,60,-99.99,,,0.00,,2013-03-26 16:02:00,
2013-03-26 10:12:00,33.0,21.0,-100.00,WSW,240,0.0,1.0,60,-99.99,,,0.00,,2013-03-26 16:12:00,
2013-03-26 10:22:00,33.0,21.0,-100.00,WSW,240,0.0,1.0,60,-99.99,,,0.00,,2013-03-26 16:22:00,
2013-03-26 10:53:00,40.0,21.0,-100.00,ESE,105,8.0,9.0,45,-99.99,,,0.00,,2013-03-26 16:53:00,
2013-03-26 11:02:00,40.0,21.0,-100.00,ESE,105,8.0,9.0,45,-99.99,,,0.00,,2013-03-26 17:02:00,
2013-03-26 11:12:00,40.0,21.0,-100.00,ESE,105,8.0,9.0,45,-99.99,,,0.00,,2013-03-26 17:12:00,
2013-03-26 11:22:00,40.0,21.0,-100.00,ESE,105,8.0,9.0,45,-99.99,,,0.00,,2013-03-26 17:22:00,
2013-03-26 11:53:00,42.0,20.0,-100.00,SW,235,6.0,6.0,41,-99.99,,,0.00,,2013-03-26 17:53:00,
2013-03-26 12:02:00,42.0,20.0,-100.00,SW,235,6.0,6.0,41,-99.99,,,0.00,,2013-03-26 18:02:00,
2013-03-26 12:12:00,42.0,20.0,-100.00,SW,235,6.0,6.0,41,-99.99,,,0.00,,2013-03-26 18:12:00,
2013-03-26 12:22:00,42.0,20.0,-100.00,SW,235,6.0,6.0,41,-99.99,,,0.00,,2013-03-26 18:22:00,
2013-03-26 12:53:00,44.0,20.0,-100.00,WSW,250,11.0,14.0,38,-99.99,,,0.00,,2013-03-26 18:53:00,
2013-03-26 13:02:00,44.0,20.0,-100.00,WSW,250,11.0,14.0,38,-99.99,,,0.00,,2013-03-26 19:02:00,
2013-03-26 13:12:00,44.0,20.0,-100.00,WSW,250,11.0,14.0,38,-99.99,,,0.00,,2013-03-26 19:12:00,
2013-03-26 13:22:00,44.0,20.0,-100.00,WSW,250,11.0,14.0,38,-99.99,,,0.00,,2013-03-26 19:22:00,
2013-03-26 14:52:00,49.0,19.0,-100.00,WNW,285,8.0,8.0,30,-99.99,,,0.00,,2013-03-26 20:52:00,
2013-03-26 15:02:00,49.0,19.0,-100.00,WNW,285,8.0,8.0,30,-99.99,,,0.00,,2013-03-26 21:02:00,
2013-03-26 15:12:00,49.0,19.0,-100.00,WNW,285,8.0,8.0,30,-99.99,,,0.00,,2013-03-26 21:12:00,
2013-03-26 15:22:00,49.0,19.0,-100.00,WNW,285,8.0,8.0,30,-99.99,,,0.00,,2013-03-26 21:22:00,
2013-03-26 15:52:00,52.0,20.0,-100.00,SW,225,4.0,6.0,28,-99.99,,,0.00,,2013-03-26 21:52:00,
2013-03-26 16:02:00,52.0,20.0,-100.00,SW,225,4.0,6.0,28,-99.99,,,0.00,,2013-03-26 22:02:00,
2013-03-26 16:12:00,52.0,20.0,-100.00,SW,225,4.0,6.0,28,-99.99,,,0.00,,2013-03-26 22:12:00,
2013-03-26 16:22:00,52.0,20.0,-100.00,SW,225,4.0,6.0,28,-99.99,,,0.00,,2013-03-26 22:22:00,
2013-03-26 16:52:00,52.0,19.0,-100.00,SW,225,6.0,8.0,27,-99.99,,,0.00,,2013-03-26 22:52:00,
2013-03-26 17:01:00,52.0,19.0,-100.00,SW,225,6.0,8.0,27,-99.99,,,0.00,,2013-03-26 23:01:00,
2013-03-26 17:10:00,52.0,19.0,-100.00,SW,225,6.0,8.0,27,-99.99,,,0.00,,2013-03-26 23:10:00,
2013-03-26 17:21:00,52.0,19.0,-100.00,SW,225,6.0,8.0,27,-99.99,,,0.00,,2013-03-26 23:21:00,
2013-03-26 17:52:00,53.0,20.0,-100.00,SSE,150,7.0,9.0,27,-99.99,,,0.00,,2013-03-26 23:52:00,
2013-03-26 18:02:00,53.0,20.0,-100.00,SSE,150,7.0,9.0,27,-99.99,,,0.00,,2013-03-27 00:02:00,
2013-03-26 18:12:00,53.0,20.0,-100.00,SSE,150,7.0,9.0,27,-99.99,,,0.00,,2013-03-27 00:12:00,
2013-03-26 18:22:00,53.0,20.0,-100.00,SSE,150,7.0,9.0,27,-99.99,,,0.00,,2013-03-27 00:22:00,
2013-03-26 18:52:00,50.0,17.0,-100.00,North,-999,0.0,0.0,27,-99.99,,,0.00,,2013-03-27 00:52:00,
2013-03-26 19:02:00,50.0,17.0,-100.00,North,-999,0.0,0.0,27,-99.99,,,0.00,,2013-03-27 01:02:00,
2013-03-26 19:12:00,50.0,17.0,-100.00,North,-999,0.0,0.0,27,-99.99,,,0.00,,2013-03-27 01:12:00,
2013-03-26 19:22:00,50.0,17.0,-100.00,North,-999,0.0,0.0,27,-99.99,,,0.00,,2013-03-27 01:22:00,
2013-03-26 19:53:00,47.0,15.0,-100.00,NE,55,7.0,8.0,28,-99.99,,,0.00,,2013-03-27 01:53:00,
2013-03-26 20:02:00,47.0,15.0,-100.00,NE,55,7.0,8.0,28,-99.99,,,0.00,,2013-03-27 02:02:00,
2013-03-26 20:12:00,47.0,15.0,-100.00,NE,55,7.0,8.0,28,-99.99,,,0.00,,2013-03-27 02:12:00,
2013-03-26 20:22:00,47.0,15.0,-100.00,NE,55,7.0,8.0,28,-99.99,,,0.00,,2013-03-27 02:22:00,
2013-03-26 20:53:00,42.0,15.0,-100.00,South,175,2.0,3.0,33,-99.99,,,0.00,,2013-03-27 02:53:00,
2013-03-26 21:02:00,42.0,15.0,-100.00,South,175,2.0,3.0,33,-99.99,,,0.00,,2013-03-27 03:02:00,
2013-03-26 21:11:00,42.0,15.0,-100.00,South,175,2.0,3.0,33,-99.99,,,0.00,,2013-03-27 03:11:00,
2013-03-26 21:22:00,42.0,15.0,-100.00,South,175,2.0,3.0,33,-99.99,,,0.00,,2013-03-27 03:22:00,
2013-03-26 21:53:00,34.0,13.0,-100.00,NW,315,7.0,9.0,41,-99.99,,,0.00,,2013-03-27 03:53:00,
2013-03-26 22:02:00,34.0,13.0,-100.00,NW,315,7.0,9.0,41,-99.99,,,0.00,,2013-03-27 04:02:00,
2013-03-26 22:12:00,34.0,13.0,-100.00,NW,315,7.0,9.0,41,-99.99,,,0.00,,2013-03-27 04:12:00,
2013-03-26 22:22:00,34.0,13.0,-100.00,NW,315,7.0,9.0,41,-99.99,,,0.00,,2013-03-27 04:22:00,
2013-03-26 22:52:00,33.0,15.0,-100.00,NW,315,4.0,5.0,47,-99.99,,,0.00,,2013-03-27 04:52:00,
2013-03-26 23:02:00,33.0,15.0,-100.00,NW,315,4.0,5.0,47,-99.99,,,0.00,,2013-03-27 05:02:00,
2013-03-26 23:12:00,33.0,15.0,-100.00,NW,315,4.0,5.0,47,-99.99,,,0.00,,2013-03-27 05:12:00,
2013-03-26 23:22:00,33.0,15.0,-100.00,NW,315,4.0,5.0,47,-99.99,,,0.00,,2013-03-27 05:22:00,